ITAMSAT (IO-26)

Last updated on Fri Dec 19 2025 00:03:11 GMT+0000 (Coordinated Universal Time)

1 22826U 93061D 25352.41595206 .00000121 00000+0 62553-4 0 9996 2 22826 98.7088 54.5964 0007886 252.1545 107.8778 14.31299803681450
UTC large
Height (km)
Speed (km/s)
/
Latitude / Longitude
Inclination (degrees)
Orbital Period (minutes)
Azimuth
Elevation
Range (km)
Doppler Factor

Next 0 passes for location: London (51.5072 / 0.1276)

Sorry there are no passes over London.